Location: ??
(34.9658°N, 128.3773°E)
Time: 19:10:11
(UTC+00:00)

Daily predictions for brighter satellites

Satellite Brightness Start Highest point End
(mag) Time Altitude Azimuth Time Altitude Azimuth Time Altitude Azimuth
Ariane Rocket 4.3 12:14:49 37° WNW 12:14:49 37° WNW 12:18:32 10° NNW
USA 234 4.4 12:23:40 28° N 12:26:06 38° NW 12:32:00 10° W
Cosmos 2237 Rocket 4.2 12:23:30 10° WSW 12:28:08 25° WNW 12:32:47 10° N
Cosmos 2278 Rocket 3.9 12:31:12 10° NW 12:34:35 29° WNW 12:34:35 29° WNW
ATLAS 5 CENTAUR R/B 4.4 18:51:32 12° ENE 18:51:32 12° ENE 18:52:10 10° ENE
Cosmos 2344 3.7 19:06:38 58° NNW 19:06:38 58° NNW 19:13:15 10° NNE
USA 234 3.6 19:05:36 10° ESE 19:12:00 61° NE 19:14:29 38° NNW
NOSS 3-4 (A) 3.9 19:19:07 48° SE 19:19:57 52° ESE 19:25:46 10° NE
NOSS 3-4 (C) 3.9 19:19:10 47° SE 19:20:03 51° ESE 19:25:52 10° NE
CZ-4C R/B 2.4 19:24:11 57° E 19:24:11 57° E 19:28:55 10° NE
Cosmos 883 Rocket 4.3 19:27:55 84° SW 19:28:08 87° W 19:34:17 10° N
Cosmos 2251 Rocket 4.1 19:31:20 48° N 19:31:20 48° N 19:35:15 10° NNE
Cosmos 909 Rocket 4.0 19:30:13 63° SSW 19:31:26 88° ESE 19:37:44 10° NNE
H-2A R/B 4.3 19:30:14 10° ESE 19:33:38 24° ENE 19:36:59 10° NNE
Cosmos 2360 Rocket 2.0 19:34:19 86° SSW 19:34:19 86° SSW 19:39:53 10° SSE
Cosmos 614 Rocket 3.9 19:34:45 82° E 19:34:45 82° E 19:39:55 10° NNE
ATLAS 2AS CENTAUR R/B 3.7 19:28:29 15° S 19:34:48 50° ESE 19:42:20 10° NE
Geosat 3.9 19:31:46 10° NNE 19:36:49 79° ESE 19:37:04 76° SSE
Milstar 3 Cent rocket 2.7 19:38:25 40° SSE 19:38:25 40° SSE 19:42:18 10° ESE
BREEZE-M DEB (TANK) 4.0 19:45:42 32° E 19:45:42 32° E 19:48:36 10° ESE
Cosmos 407 Rocket 4.0 19:44:51 23° S 19:47:59 59° ESE 19:53:03 10° NNE
CZ-3 R/B 3.7 19:35:08 27° SW 19:48:17 51° S 19:56:11 10° E
OAO 3 Rocket 3.0 19:51:11 81° W 19:51:26 89° N 19:56:18 10° E
Cosmos 2315 Rocket 3.8 19:50:06 41° SSW 19:52:17 67° W 19:58:28 10° N
ALOS 2.1 19:49:05 10° N 19:53:45 82° WNW 19:54:29 63° SSW
Cosmos 1933 3.2 19:58:40 62° S 19:59:19 85° E 20:03:22 10° N
CZ-2C R/B 4.0 19:59:03 10° S 20:00:50 12° SE 20:02:40 10° ESE
Sakura Rocket 3.9 20:01:59 33° S 20:01:59 33° S 20:05:15 10° ESE
Cosmos 2333 Rocket 2.5 19:56:09 10° NNW 20:01:55 69° ENE 20:07:38 10° SSE
Lacrosse 4 Rocket 2.0 20:03:15 44° SSW 20:03:15 44° SSW 20:06:25 10° S
Lacrosse 5 2.3 20:03:08 16° NNW 20:07:04 59° NE 20:12:03 10° SE
USA 238 DEB 3.9 20:01:49 10° NNW 20:09:14 89° ENE 20:16:52 10° SSE
USA 238 3.9 20:01:56 10° NNW 20:09:20 88° ENE 20:16:59 10° SSE
Cosmos 2297 Rocket 3.7 20:04:22 10° S 20:09:28 36° ESE 20:14:34 10° NE
Cosmos 1992 Rocket 4.2 20:10:12 43° W 20:10:32 43° WSW 20:15:24 10° S
Cosmos 1328 Rocket 3.9 20:11:50 10° S 20:16:05 64° E 20:20:20 10° NNE
Meteor 1-31 Rocket 2.9 20:13:08 10° NNE 20:16:59 71° ESE 20:20:46 10° S
Meteor 1-26 Rocket 4.4 20:11:46 10° S 20:17:24 79° E 20:23:16 10° N
Cosmos 2219 Rocket 2.3 20:12:20 10° NNW 20:18:01 80° ENE 20:23:42 10° SSE
ISS -0.9 20:16:55 10° N 20:18:17 12° NNE 20:19:39 10° NE
Skynet4D Del rocket 4.4 20:18:16 26° SW 20:20:25 36° S 20:25:16 10° ESE
CZ-2C R/B 4.1 20:22:58 10° NNW 20:24:28 15° NW 20:24:28 15° NW
Cosmos 1140 Rocket 3.4 20:21:24 11° SSW 20:26:21 69° WNW 20:31:31 10° NNE
Landsat 5 3.8 20:26:57 10° SSW 20:30:27 35° W 20:34:01 10° NNW
METEOR-M 4.3 20:25:29 10° N 20:30:36 49° WNW 20:35:43 10° SW
Cosmos 1805 Rocket 4.2 20:27:06 10° NNW 20:31:07 33° W 20:35:06 10° SSW
SJ-12 3.8 20:27:04 10° NNE 20:31:08 89° ESE 20:35:10 10° SSW
COSMO-SKYMED 1 3.3 20:28:05 10° SSE 20:32:19 55° ENE 20:36:33 10° N
COSMOS 2428 2.7 20:27:24 10° NNW 20:33:08 90° ENE 20:38:52 10° SSE
Delta 2 Rocket 3.7 20:30:55 28° W 20:33:25 86° SSW 20:38:39 10° ESE
ATLAS 5 CENTAUR R/B 2.2 20:33:05 27° WNW 20:33:46 29° NW 20:37:28 10° N
Cosmos 1437 Rocket 2.8 20:30:08 10° SSW 20:34:11 62° W 20:38:11 10° N
GPS 2-04 Rocket1 2.5 20:35:50 30° W 20:37:32 81° N 20:41:23 10° E
NOSS 3-2 (A) 4.3 20:30:32 10° NW 20:38:13 52° WSW 20:46:35 10° S
Cosmos 1484 Rocket 3.8 20:35:43 10° NNW 20:38:41 24° WNW 20:38:41 24° WNW
CZ-4B R/B 3.7 20:34:33 10° NNE 20:39:03 61° E 20:43:26 10° S
SeaSat 1 3.2 20:34:32 10° SE 20:39:20 55° ENE 20:44:09 10° NNW
deb Chang Zheng 4 4.4 20:36:04 10° NNE 20:40:16 53° E 20:44:29 10° S
MOS 1 Rocket 3.2 20:36:48 10° SSE 20:41:08 80° ENE 20:45:40 10° N
Meteor PRIRODA 4.4 20:38:00 10° NNE 20:41:41 57° E 20:45:20 10° S
Cosmos 1782 2.8 20:39:12 10° SSW 20:43:02 53° W 20:46:55 10° N
Cosmos 2184 Rocket 4.0 20:38:14 10° N 20:44:36 84° W 20:50:58 10° S
NOSS 0 Rocket 4.4 20:40:47 10° NNW 20:46:55 65° ENE 20:53:04 10° SSE
ADEOS 3.7 20:43:22 10° N 20:48:25 50° WNW 20:53:24 10° SW
Sich 1 3.9 20:44:50 10° NNW 20:48:35 28° W 20:52:17 10° SSW
Cosmos 2219 3.4 20:43:02 10° SSW 20:48:42 78° ESE 20:54:21 10° NNE
CENTAUR R/B 3.3 20:41:57 10° NW 20:50:21 65° WSW 20:59:08 10° SSE
Meteor 1-25 Rocket 4.3 20:45:03 10° NNW 20:50:26 52° W 20:55:48 10° S
CZ-4B R/B 1.3 20:48:51 10° SSE 20:51:57 76° ENE 20:55:01 10° N
Cosmos 2322 4.2 20:48:43 10° NW 20:53:52 36° WSW 20:58:58 10° S
Cosmos 1666 Rocket 3.9 20:50:47 10° NNW 20:54:54 41° W 20:59:01 10° SSW
USA 234 4.0 20:49:28 10° S 20:55:08 32° SW 21:00:52 10° WNW
SKYMED 3 4.5 20:52:00 10° S 20:56:19 76° WSW 21:00:40 10° NNW
ERS-2 4.3 20:55:46 10° SE 20:58:58 30° ENE 21:02:12 10° N
Cosmos 1500 3.4 20:57:42 10° N 21:01:31 75° E 21:05:19 10° S
H-2A R/B 3.1 21:06:05 10° SSW 21:09:28 23° W 21:12:50 10° NW
Timation 2 Rocket 4.2 21:03:43 10° SSW 21:10:35 75° WNW 21:17:24 10° NNE
CZ-2C R/B 4.4 21:06:03 10° SE 21:11:12 39° ENE 21:16:22 10° N
Cosmos 1151 Rocket 4.2 21:09:19 10° SW 21:12:36 21° WNW 21:15:53 10° NNW
CZ-4C R/B 3.7 21:09:26 10° W 21:12:44 17° NW 21:16:25 10° N
YAOGAN 6 2.4 21:13:06 10° N 21:16:34 67° WNW 21:20:00 10° SSW
Meteor 1-14 Rocket 4.3 21:11:15 10° NNW 21:16:55 66° W 21:22:40 10° S
Nadezhda 1 Rocket 4.2 21:12:44 10° SSW 21:18:36 48° W 21:24:34 10° N
SKYMED 2 4.1 21:16:20 10° SSW 21:20:22 38° W 21:24:25 10° NNW
Cosmos 2237 Rocket 2.3 21:19:38 10° NNW 21:25:20 88° ENE 21:30:58 10° SSE
SMAP 4.2 21:21:25 10° NNE 21:25:57 50° E 21:30:27 10° S
ATLAS 2AS CENTAUR R/B 3.6 21:18:48 10° WSW 21:25:59 37° NW 21:33:08 10° NNE
Meteor 2-6 Rocket 4.4 21:21:49 10° SSW 21:27:39 58° W 21:33:27 10° N
Cosmos 2341 Rocket 4.4 21:22:03 10° N 21:28:16 73° E 21:34:28 10° SSE
